Lapse_Rate
4.2 4.2 4.9 5.2 5.6 5.6 6.1 6.0 6.1 6.3 7.3 8.9 8.1 7.6 8.6 9.3 9.4 9.3 8.0 5.7 6.6 8.1 9.1 9.3 9.3 9.2 9.2 9.5 9.5 9.2 8.5 7.8 8.0 7.0 5.9 5.4 6.5 6.3 6.2 6.4 6.1 5.7 5.9
5.2 5.8 5.7 5.6 6.0 5.9 6.4 7.2 7.4 7.7 8.7 8.6 9.2 7.9 8.0 8.4 8.9 9.4 9.4 8.9 6.9 7.4 8.9 9.2 9.1 9.3 9.3 9.5 9.5 9.6 8.8 8.3 8.0 7.3 5.7 5.5 6.1 6.5 6.2 6.5 6.4 6.5 5.8
5.6 6.0 6.0 6.2 6.6 6.9 7.3 7.9 8.0 8.2 9.3 9.3 9.4 8.2 8.8 8.5 8.9 9.3 9.5 9.4 9.0 7.6 7.4 7.6 8.9 9.4 9.5 9.4 9.6 9.4 8.1 9.1 9.1 7.0 6.2 5.8 6.0 6.0 6.2 6.4 6.2 6.4 5.9
5.9 6.2 6.7 7.7 6.8 6.8 6.6 7.5 8.0 7.6 8.5 9.3 8.4 8.1 9.3 9.1 9.2 9.4 9.3 9.4 9.1 8.3 7.5 7.0 7.2 7.8 9.0 9.4 9.6 8.5 7.4 9.1 6.6 5.8 5.8 5.9 6.1 6.2 6.4 5.9 6.3 6.1 5.9
6.1 6.7 7.1 7.1 7.2 7.6 7.6 7.6 7.8 8.1 8.4 9.0 8.3 9.2 9.4 8.0 8.6 9.1 8.9 8.9 8.3 7.4 7.4 6.9 7.0 7.0 7.1 7.0 7.7 8.0 8.8 7.7 6.6 6.1 4.9 4.4 4.7 5.7 6.5 6.6 6.2 6.4 6.3
6.2 6.7 6.8 7.2 7.3 7.8 8.0 8.3 7.3 8.6 8.6 7.3 7.6 6.8 8.5 8.6 8.5 9.1 8.7 8.4 7.8 6.4 6.6 6.7 6.8 7.0 6.3 6.5 7.3 8.5 8.3 7.4 8.1 7.3 5.3 4.7 4.7 4.0 4.2 5.9 6.2 6.3 6.4
6.3 6.9 7.3 7.4 7.5 7.4 6.9 6.5 6.7 7.0 7.2 8.6 6.6 6.9 7.6 9.3 9.4 9.2 9.4 8.0 8.8 7.1 6.5 7.0 6.8 7.0 6.9 6.4 7.3 8.9 8.4 7.8 9.0 8.2 7.4 6.4 4.7 4.1 3.7 3.3 4.0 5.4 6.2
6.2 6.6 7.0 6.9 7.2 7.5 7.0 6.8 6.6 6.3 6.7 7.8 6.4 6.4 7.0 8.3 9.1 9.1 8.6 7.8 8.9 8.4 8.2 7.7 7.4 7.1 7.0 6.9 6.5 8.6 7.3 6.6 9.6 8.8 8.0 7.4 6.2 4.4 3.3 3.5 3.5 3.6 5.3
6.3 6.4 6.6 7.0 7.1 6.6 6.3 7.4 6.8 6.5 6.8 6.8 7.3 6.8 6.7 7.1 6.9 8.4 8.6 7.1 7.5 7.3 6.5 6.6 7.3 7.1 7.2 6.9 7.6 7.3 6.0 6.4 8.8 9.6 9.4 8.7 7.8 6.8 5.6 5.1 5.0 4.5 4.2
6.2 6.5 6.8 7.0 7.0 6.7 6.7 6.6 7.4 7.2 7.2 6.6 7.5 7.2 6.9 6.8 7.0 7.2 7.9 6.3 6.1 7.8 6.9 5.8 6.8 6.8 6.6 5.9 6.2 7.6 7.8 6.9 6.1 8.2 8.7 8.3 8.3 8.2 7.9 6.1 5.5 4.6 5.4
6.3 6.4 6.8 7.1 7.3 7.1 7.1 7.3 7.2 7.0 7.2 7.2 7.0 7.2 7.1 6.6 7.2 7.1 7.0 6.6 5.6 7.5 7.4 5.8 6.0 6.5 5.9 6.5 6.9 7.9 8.4 8.5 8.6 8.9 8.5 8.0 7.7 7.7 8.3 8.7 7.2 6.5 6.0
6.0 6.4 6.2 6.6 7.0 7.5 7.4 7.3 7.4 6.9 7.7 7.6 7.6 6.8 7.1 6.7 6.4 6.7 6.5 6.8 6.3 6.8 8.4 6.3 5.5 6.4 5.3 5.3 6.0 6.2 6.8 8.0 8.4 8.3 8.3 8.3 8.0 7.2 7.2 7.9 8.7 8.3 6.9
6.1 6.6 5.8 6.1 6.6 7.1 7.6 7.6 7.9 8.3 7.8 7.6 8.0 7.1 6.4 7.5 7.4 6.9 7.0 6.9 6.7 5.8 7.3 7.7 6.3 5.9 6.2 5.6 5.5 5.8 7.0 7.3 7.6 8.0 8.1 8.3 8.4 8.3 7.8 7.0 7.1 8.0 8.4
6.0 6.1 5.8 5.9 6.5 6.9 7.6 7.9 8.2 8.5 8.6 7.8 7.7 8.1 7.9 7.4 6.7 7.7 7.0 6.9 7.0 6.5 6.2 6.4 7.7 7.0 6.1 6.2 4.8 4.9 7.5 7.6 7.9 8.1 8.2 8.0 8.0 8.0 8.1 7.8 7.2 7.4 7.1
5.6 5.8 5.6 5.9 6.1 6.6 7.1 7.4 7.8 8.0 8.0 7.8 8.0 6.9 7.3 7.8 6.3 7.8 8.2 6.8 6.8 7.2 6.9 5.9 5.8 8.0 7.6 6.7 5.7 6.7 6.3 6.6 7.0 7.3 7.6 7.7 7.8 7.9 7.9 7.4 7.8 7.6 7.3
5.0 5.4 5.5 5.9 6.3 6.8 7.0 7.3 7.3 7.9 7.7 7.8 7.8 7.9 8.0 6.9 7.1 6.5 7.4 8.0 7.6 7.8 7.5 7.7 7.6 6.7 7.3 8.0 6.4 6.4 6.4 6.1 6.6 6.9 6.8 6.6 7.3 7.7 7.8 7.6 7.6 7.2 7.1
4.8 5.4 5.2 5.6 6.6 6.8 7.3 7.5 7.3 7.7 7.7 7.7 7.7 7.0 7.7 6.7 6.4 7.1 7.2 7.3 7.5 7.7 8.0 8.8 8.4 8.5 8.6 7.3 7.8 6.9 6.5 6.5 6.7 6.8 6.8 6.6 6.5 6.9 7.6 7.8 7.8 7.8 7.7
4.8 4.9 4.8 5.3 6.3 6.4 7.1 7.5 7.3 7.3 7.5 7.7 7.7 7.5 8.0 7.9 7.3 6.9 6.9 7.9 7.6 7.6 7.2 7.8 7.5 8.5 7.6 6.8 6.8 6.3 5.9 6.1 5.9 6.6 6.9 6.8 6.5 6.4 6.5 7.5 7.9 8.0 7.8
4.7 4.7 4.9 4.7 5.1 5.9 5.7 7.0 7.3 7.1 7.2 7.4 7.4 7.7 8.2 8.2 8.7 7.6 7.4 6.5 7.1 7.7 7.5 7.5 7.7 7.7 8.1 7.3 6.6 6.3 5.8 5.9 5.8 5.8 6.3 6.4 6.3 6.4 6.1 6.1 7.5 7.7 7.8
3.9 4.1 4.5 4.3 4.6 5.4 6.2 6.4 7.3 6.7 6.7 7.0 6.9 7.1 7.4 7.8 8.9 7.9 8.1 7.3 7.7 7.3 7.3 7.8 7.6 6.7 6.6 7.1 6.7 5.5 5.2 4.5 5.3 5.7 5.1 5.1 5.4 5.5 5.8 5.8 6.0 7.4 7.6
3.4 3.5 3.8 4.3 4.3 5.3 6.9 6.9 7.1 6.6 5.9 6.2 6.8 6.9 6.6 7.7 8.2 9.0 8.9 8.7 7.4 6.5 6.7 7.2 7.1 7.2 7.4 6.5 5.8 5.8 6.1 5.0 4.5 3.1 3.4 4.8 5.7 6.1 6.2 5.7 5.8 6.1 6.5
2.8 3.1 3.4 3.3 3.6 5.0 7.0 8.8 8.6 6.6 6.0 5.8 5.8 6.3 6.8 7.1 7.3 8.0 8.6 8.3 8.0 8.1 7.1 7.9 7.6 6.6 6.6 6.1 6.0 6.0 6.0 6.7 5.6 5.0 4.7 3.5 5.0 5.8 6.4 5.9 5.1 5.7 6.0
2.1 2.6 2.9 2.9 3.3 4.0 6.4 8.6 8.7 6.7 5.6 5.7 5.7 5.7 6.2 7.5 7.5 6.8 7.2 7.8 7.6 7.9 8.4 8.6 8.2 8.2 6.7 6.0 6.3 5.7 5.8 6.0 6.8 5.7 5.4 3.8 4.6 4.7 7.0 6.6 5.5 5.3 6.1
2.1 2.1 2.5 2.7 2.9 3.9 5.3 6.6 8.2 6.5 6.1 5.6 5.2 5.3 6.1 7.4 8.1 6.9 6.7 8.4 7.8 7.4 7.4 8.3 8.1 6.8 6.1 4.4 6.0 6.6 6.6 5.1 5.0 5.2 5.9 6.1 5.8 4.7 5.8 6.5 5.9 6.2 6.2
2.3 2.5 2.5 2.7 2.9 3.7 4.3 5.6 7.7 6.4 5.9 5.6 4.9 5.0 6.3 7.3 8.7 9.2 7.3 7.8 7.4 7.2 6.1 5.7 5.8 6.5 6.9 7.1 6.9 7.0 7.1 6.8 6.1 6.2 7.3 7.4 6.9 6.9 6.9 6.1 6.6 5.2 5.6
2.5 2.6 3.0 3.4 3.3 3.6 3.9 5.5 6.9 6.0 5.8 5.0 5.0 4.8 5.2 6.6 9.0 9.2 6.8 6.3 5.8 5.5 5.2 4.7 5.1 5.7 5.3 5.6 5.3 6.0 6.3 6.5 6.4 6.9 7.4 7.4 7.4 7.9 8.0 7.2 7.3 7.2 6.8
Wind_Speed
14 16 16 15 14 14 14 14 14 15 14 15 17 17 16 17 19 19 19 23 22 22 24 24 24 24 26 25 27 27 26 26 23 18 20 29 26 24 27 24 23 20 25
14 15 15 15 15 15 15 14 13 12 12 16 15 16 17 17 18 19 19 21 23 22 22 24 24 23 25 25 27 27 28 26 21 17 14 16 19 23 24 23 23 22 21
15 15 14 14 14 15 16 15 13 13 10 15 12 15 16 17 18 18 18 19 20 20 22 24 25 24 23 25 26 30 31 25 18 16 14 18 18 23 20 22 23 23 22
14 13 12 12 15 14 14 12 9 9 10 10 11 11 10 15 18 19 19 18 18 19 19 22 25 24 24 25 27 30 24 16 11 5 9 16 17 17 23 22 23 22 22
14 12 10 12 15 12 11 9 9 9 10 10 10 11 11 11 13 15 15 16 17 20 19 19 22 23 24 24 27 23 16 14 11 12 13 9 5 7 14 19 23 25 24
14 13 11 13 14 10 7 8 8 9 10 9 10 12 11 12 9 9 9 12 17 19 18 17 16 16 21 22 23 18 18 14 12 10 12 13 11 12 9 6 17 23 24
13 14 13 14 14 8 9 8 7 9 8 10 8 9 8 11 10 6 7 8 12 12 14 13 13 13 14 16 18 15 15 12 12 11 11 11 8 8 10 10 7 6 17
15 13 13 12 15 8 10 9 8 6 5 8 4 8 5 7 3 12 7 9 11 7 6 10 12 12 12 9 11 8 14 7 10 15 12 10 8 8 3 3 3 7 5
13 13 14 13 13 11 7 9 8 8 6 7 7 4 3 3 7 3 8 9 11 6 5 5 8 7 6 5 7 17 22 14 9 13 11 14 16 10 4 3 5 6 6
12 13 12 12 13 12 9 8 9 9 7 6 6 3 4 6 3 5 5 7 10 8 8 5 5 3 2 2 1 10 18 15 10 6 9 10 11 9 8 7 8 12 6
12 12 13 12 11 11 12 10 10 10 7 7 6 6 4 5 3 4 6 8 7 7 8 6 6 5 5 6 6 10 17 14 13 10 7 8 9 8 6 4 3 6 9
9 12 14 12 11 11 10 10 9 9 8 8 7 8 6 3 4 4 3 4 5 5 6 9 9 8 9 9 7 8 9 8 12 11 9 8 9 10 9 7 4 6 7
7 9 14 11 10 10 12 13 10 10 7 7 10 7 7 6 5 3 5 3 2 3 4 7 10 9 11 10 14 14 6 4 9 7 8 8 8 9 8 11 11 9 8
7 11 12 12 11 10 10 10 6 8 9 9 11 10 8 6 6 6 3 4 3 1 2 10 6 9 12 12 19 18 13 11 7 10 8 8 7 8 8 7 10 9 3
8 11 12 12 11 11 10 10 6 8 9 9 10 9 7 7 5 6 4 2 2 3 2 4 4 10 10 12 16 12 13 17 15 13 9 7 6 6 7 8 6 2 4
9 9 10 12 11 11 11 9 7 8 9 8 7 10 10 8 6 5 5 4 3 3 3 2 3 6 8 8 13 11 10 12 16 14 14 14 7 5 6 5 6 5 5
8 8 8 8 9 9 9 8 8 8 9 10 10 9 11 10 8 5 4 4 4 3 3 3 1 3 5 8 8 8 8 8 9 13 12 12 12 11 7 4 2 4 5
10 8 8 8 9 9 9 7 8 7 8 9 10 10 11 9 9 6 4 7 5 3 2 5 2 3 3 7 6 5 6 8 7 9 9 11 12 12 13 7 1 2 2
8 9 7 8 9 9 8 7 6 7 7 7 8 9 9 11 11 9 7 7 5 4 3 2 3 2 2 5 5 5 6 6 7 10 9 9 10 11 11 13 5 4 3
7 8 7 8 8 9 8 7 4 6 7 6 7 7 9 10 9 7 7 7 8 6 3 3 1 2 2 3 4 5 5 6 6 9 10 9 9 9 10 10 11 7 7
6 7 8 9 9 8 7 1 4 7 7 8 8 7 7 11 13 10 7 7 7 5 5 5 4 3 3 4 4 4 4 6 5 4 6 6 7 7 7 8 8 8 8
6 6 6 7 9 6 13 15 9 6 7 6 7 9 9 9 10 8 13 11 9 6 4 4 3 3 2 2 1 2 4 5 4 2 7 8 8 7 6 8 10 10 9
5 6 6 6 8 8 13 16 12 5 6 7 7 7 8 7 10 1 7 9 9 10 9 4 4 4 1 3 2 1 1 2 3 3 4 6 5 8 9 9 10 11 10
3 5 5 6 6 6 14 14 12 5 6 7 6 7 7 9 8 1 3 6 5 4 6 4 5 4 3 4 4 3 2 2 4 5 3 2 1 3 5 9 11 12 14
4 4 5 7 6 7 12 13 11 5 6 7 6 6 8 8 12 8 2 6 6 4 6 9 7 6 7 9 1 2 2 3 3 2 2 2 1 4 5 6 9 8 8
5 5 7 6 9 8 11 11 11 4 7 6 6 6 9 10 12 11 3 4 4 1 5 6 6 6 6 6 5 2 1 3 3 3 1 3 4 4 4 1 3 7 10
Wind_Direction
336 335 334 332 332 333 330 327 323 320 319 318 316 303 301 295 295 292 293 294 294 291 282 274 273 275 278 271 267 265 261 260 256 267 267 234 216 214 214 207 200 201 205
332 333 334 333 334 333 327 322 318 317 317 319 315 308 299 294 292 285 287 290 291 287 285 274 271 274 278 275 271 259 262 252 254 249 250 239 221 220 216 210 206 200 197
339 337 334 333 333 332 328 323 317 314 316 318 314 311 302 293 292 287 283 285 287 285 284 275 270 271 275 277 273 265 265 243 250 236 234 230 229 225 224 212 202 201 196
342 337 335 329 331 325 323 327 325 323 319 313 315 310 304 305 298 292 286 283 284 283 282 275 270 271 276 274 276 269 235 229 191 151 225 231 235 247 215 221 212 205 202
344 338 325 325 330 322 320 331 324 317 317 314 313 313 307 306 293 294 290 287 290 279 272 270 269 272 279 279 279 259 228 212 178 129 111 109 88 237 246 228 217 213 206
347 337 328 329 332 331 328 331 320 316 314 310 317 310 303 303 293 289 286 292 299 284 264 261 266 273 277 278 276 255 214 183 163 140 115 101 78 65 31 268 230 219 214
348 347 342 341 329 331 327 319 316 311 312 326 304 306 303 297 307 299 311 296 303 289 261 255 258 268 274 276 270 255 204 190 187 177 156 132 105 59 64 27 343 281 228
353 349 347 335 340 325 326 328 317 311 295 320 303 305 317 330 344 315 336 329 321 311 262 257 260 263 268 266 279 210 129 52 183 107 142 132 128 129 19 20 15 339 219
350 352 354 351 346 339 321 330 317 308 311 326 314 313 322 317 324 304 335 341 336 339 339 296 267 268 251 254 233 126 123 118 66 88 91 83 79 83 81 154 313 194 287
348 350 348 347 349 348 335 327 335 335 336 324 323 301 298 300 319 314 325 337 334 354 359 347 335 353 117 100 55 128 130 138 121 40 57 72 75 61 57 38 -0 348 261
348 350 350 347 349 351 347 342 338 339 341 334 337 326 302 326 299 313 325 339 337 350 13 4 10 7 38 104 133 114 129 134 118 116 97 66 55 50 20 13 5 322 308
341 350 349 349 339 345 351 347 345 339 346 347 343 333 330 309 313 326 320 325 324 320 7 30 27 13 26 47 58 64 71 126 135 119 95 70 50 31 13 346 319 269 293
342 344 348 342 341 338 345 352 351 352 341 344 343 335 329 339 334 301 332 333 325 317 346 30 29 14 18 34 55 45 61 105 88 103 88 66 44 32 8 342 322 291 290
330 332 338 342 341 339 343 347 353 348 351 351 347 341 335 330 329 331 339 336 325 332 339 6 11 20 15 27 43 43 29 66 101 108 100 83 50 20 2 342 328 288 219
326 341 341 342 342 352 350 344 345 349 348 352 351 339 330 338 322 326 340 338 336 343 335 353 341 358 10 25 41 59 48 55 70 70 81 90 65 37 11 6 13 116 204
321 330 342 347 345 344 351 353 345 347 352 359 355 350 349 344 344 317 339 326 288 344 330 353 351 345 354 19 26 32 42 57 54 54 51 52 38 28 8 353 18 55 91
326 324 330 336 343 341 349 348 350 350 355 353 358 354 354 351 345 342 316 306 300 289 321 1 297 336 356 7 16 24 30 38 47 40 34 34 34 22 357 8 59 84 101
322 322 325 328 330 335 334 338 347 347 349 351 351 350 352 354 356 343 334 319 311 314 313 325 321 344 5 356 358 20 21 35 37 26 20 19 23 21 16 342 121 92 64
325 327 338 333 327 328 327 328 342 345 343 349 348 347 343 348 7 358 356 358 351 320 298 297 316 336 344 12 352 9 22 13 21 15 12 4 6 6 10 6 296 207 207
323 329 336 336 333 326 322 311 339 346 347 349 343 342 341 335 351 357 5 7 344 348 298 286 316 346 342 5 23 3 2 3 348 353 358 1 2 2 5 358 353 274 230
323 325 333 336 336 335 338 305 1 356 345 343 340 339 336 327 344 3 356 1 359 1 360 14 22 349 5 6 8 341 343 343 337 4 354 353 353 352 353 345 334 334 306
326 334 337 335 336 336 333 352 9 350 344 341 335 332 335 338 335 344 355 3 3 19 42 29 358 352 5 318 357 341 342 351 332 14 346 324 326 321 327 330 337 327 322
324 329 333 336 335 331 338 338 359 354 335 336 331 330 331 334 344 356 1 12 18 19 14 6 348 345 241 225 198 168 189 243 273 295 309 302 323 312 311 310 317 316 310
325 324 323 330 327 328 341 338 355 354 341 337 333 332 325 327 334 180 349 5 6 15 357 357 347 303 256 239 218 184 233 286 273 271 242 273 313 289 308 305 295 299 300
313 313 311 319 323 323 336 337 336 340 339 337 338 335 338 331 329 2 334 348 343 8 1 3 356 349 353 3 151 200 280 329 322 305 306 283 288 302 288 279 292 321 313
302 313 311 312 316 321 327 332 334 334 333 331 334 335 345 337 349 352 25 339 313 324 352 10 6 10 15 13 28 16 261 289 292 297 119 333 327 336 318 337 346 334 326